Regional Weather Roundup
Issued by NWS

Home | Current Version | Previous Version | Graphics & Text | Print | Product List | Glossary On
Versions: 1 2 3 4 5 6 7 8 9 10 11 12 13 14 15 16 17 18 19 20 21 22 23 24 25 26 27 28 29 30 31 32 33 34 35 36 37 38 39 40 41 42 43 44 45 46 47 48 49 50
000
ASUS44 KMEG 290400
RWRTN
TENNESSEE HOURLY STATE WEATHER ROUNDUP
NATIONAL WEATHER SERVICE MEMPHIS TN
1100 PM CDT TUE MAR 28 2017

TNZ002-004-019-021-049-052-054-088>092-290500-
WEST TENNESSEE

CITY           SKY/WX    TMP DP  RH WIND       PRES   REMARKS
MEMPHIS INTL   CLEAR     67  55  65 E15       29.97S
NWS MEMPHIS      N/A     64 N/A N/A MISG        N/A
JACKSON        CLEAR     60  53  77 NE9       30.01S
DYERSBURG      CLEAR     58  54  86 NE8       30.02F
PARIS          CLEAR     54  52  94 NE7       30.05S
$$

TNZ008-025-027-028-033-062-065-066-290500-
NORTH MIDDLE TENNESSEE

CITY           SKY/WX    TMP DP  RH WIND       PRES   REMARKS
NASHVILLE      CLEAR     59  53  80 NE3       30.06S
CLARKSVILLE    CLEAR     54  51  90 CALM      30.06R FOG
SMYRNA         CLEAR     56  53  90 CALM      30.07R
CROSSVILLE     CLEAR     54  48  80 CALM      30.08S
$$

TNZ061-075-076-078-094-096-097-290500-
SOUTH MIDDLE TENNESSEE

CITY           SKY/WX    TMP DP  RH WIND       PRES   REMARKS
TULLAHOMA      CLEAR     57  52  82 NE5         N/A
WINCHESTER     CLEAR     52  50  93 CALM      30.05S
MCMINNVILLE    CLEAR     55  54  94 NE5       30.06S
COLUMBIA       CLEAR     57  57 100 CALM      30.03S
SHELBYVILLE    CLEAR     57  54  88 NE3       30.06R
$$

TNZ017-018-042-046-047-290500-
NORTHEAST TENNESSEE

CITY           SKY/WX    TMP DP  RH WIND       PRES   REMARKS
TRI CITIES     CLOUDY    59  52  77 CALM      30.07R
$$

TNZ012-013-036-069-073-074-290500-
CENTRAL EAST TENNESSEE

CITY           SKY/WX    TMP DP  RH WIND       PRES   REMARKS
KNOXVILLE      MOCLDY    61  49  64 CALM      30.05R
OAK RIDGE      CLEAR     57  49  74 CALM      30.07R
GATLINBURG     PTCLDY    55  50  82 CALM      30.06R
$$

TNZ083-085-099-290500-
SOUTHEAST TENNESSEE

CITY           SKY/WX    TMP DP  RH WIND       PRES   REMARKS
CHATTANOOGA    CLEAR     59  51  75 N5        30.04S
$$

SKY/WX REPORTED AS FAIR MEANS FEW OR NO CLOUDS BELOW
12 THOUSAND FEET.




USA.gov is the U.S. government's official web portal to all federal, state and local government web resources and services.